Location: Bittkow
(50.3000°N, 19.0000°E)
Time: 13:26:06
(UTC+00:00)

SL-8 R/B - Pass Details

Date: 19 September 2020
Orbit: 656 x 667 km, 48.4° (Epoch: 22 October)

Event Time Altitude Azimuth Distance (km) Brightness Sun altitude
Exits shadow 02:46:02 29° 259° (WSW) 1,203 4.5 -16.3°
Maximum altitude 02:48:07 50° 200° (SSW) 840 3.9 -16.0°
Drops below altitude 10° 02:52:43 10° 126° (SE) 2,063 6.7 -15.3°
Sets 02:55:06 0° 121° (ESE) 2,973 7.6 -15.0°
